{"data":{"norad_id":65269,"intl_designator":"2025-182C","name":"COSMOS 2593","alt_names":[],"object_type":"PAYLOAD","status":"ACTIVE","operator":null,"country":"CIS","launch_date":"2025-08-21","launch_site_code":"PLMSC","launch_vehicle":null,"mission":null,"orbit_class":"UNKNOWN","rcs_meters":null,"size_class":null,"mass_kg":null,"dimensions":null,"purposes":[],"wikipedia_slug":null,"has_3d_model":false,"image_url":null,"decayed_at":null,"tle_current":{"epoch":"2026-09-21T22:11:21.492384Z","epoch_age_seconds":39225,"freshness":"FRESH","line1":"1 65269U 25182C   26264.92455431  .00059105  31736-5  14530-3 0  9990","line2":"2 65269  96.5835 193.9565 0006552 112.8895 247.3075 15.96162387 63124","mean_motion":15.96162387,"eccentricity":0.0006552,"inclination_deg":96.5835,"raan_deg":193.9565,"arg_perigee_deg":112.8895,"mean_anomaly_deg":247.3075,"bstar":0.0001453,"rev_number":6312,"period_min":90.216384731787,"perigee_km":280.71174295104,"apogee_km":289.44321920705,"semimajor_km":6663.214481079,"source":"CELESTRAK","updated_at":"2026-09-22T09:00:30.246190Z"}}}